Location: Waco, TX
(31.5480°N, 97.1670°W)
Time: 09:27:38
(UTC-05:00)

ISS - Pass Details

Date: 10 October 2019
Orbit: 411 x 421 km, 51.6° (Epoch: 18 October)

Event Time Altitude Azimuth Distance (km) Brightness Sun altitude
Rises 10:46:27 0° 182° (S) 2,344 0.5 37.7°
Reaches altitude 10° 10:49:36 10° 149° (SSE) 1,484 0.2 38.2°
Maximum altitude 10:50:56 12° 126° (SE) 1,372 0.2 38.5°
Drops below altitude 10° 10:52:16 10° 102° (ESE) 1,485 0.0 38.7°
Sets 10:55:25 0° 69° (ENE) 2,349 0.3 39.2°
